Time,TemperatureF,DewpointF,PressureIn,WindDirection,WindDirectionDegrees,WindSpeedMPH,WindSpeedGustMPH,Humidity,HourlyPrecipIn,Conditions,Clouds,dailyrainin,SoftwareType,DateUTC
2013-07-22 00:07:00,73.5,59.0,29.69,NW,307,0.0,3.0,61,0.00,,,0.00,weatherlink.com 1.10,2013-07-22 06:07:00,
2013-07-22 00:22:00,72.6,60.0,29.70,WNW,290,0.0,0.0,65,0.00,,,0.00,weatherlink.com 1.10,2013-07-22 06:22:00,
2013-07-22 00:37:00,72.0,60.0,29.69,WNW,294,0.0,0.0,66,0.00,,,0.00,weatherlink.com 1.10,2013-07-22 06:37:00,
2013-07-22 00:52:00,70.9,60.0,29.68,West,270,0.0,0.0,69,0.00,,,0.00,weatherlink.com 1.10,2013-07-22 06:52:00,
2013-07-22 01:07:00,71.3,60.0,29.68,ESE,117,0.0,0.0,67,0.00,,,0.00,weatherlink.com 1.10,2013-07-22 07:07:00,
2013-07-22 01:22:00,71.5,60.0,29.69,SSE,158,4.0,5.0,68,0.00,,,0.00,weatherlink.com 1.10,2013-07-22 07:22:00,
2013-07-22 01:37:00,70.4,60.0,29.69,SW,222,3.0,6.0,70,0.00,,,0.00,weatherlink.com 1.10,2013-07-22 07:37:00,
2013-07-22 01:52:00,69.9,60.0,29.69,SSE,148,0.0,3.0,72,0.00,,,0.00,weatherlink.com 1.10,2013-07-22 07:52:00,
2013-07-22 02:07:00,70.0,60.0,29.69,SE,124,0.0,0.0,70,0.00,,,0.00,weatherlink.com 1.10,2013-07-22 08:07:00,
2013-07-22 02:22:00,69.8,59.0,29.69,East,94,0.0,0.0,69,0.00,,,0.00,weatherlink.com 1.10,2013-07-22 08:22:00,
2013-07-22 02:37:00,70.4,59.0,29.69,NE,56,1.0,3.0,68,0.00,,,0.00,weatherlink.com 1.10,2013-07-22 08:37:00,
2013-07-22 02:52:00,70.3,60.0,29.69,WNW,285,0.0,2.0,70,0.00,,,0.00,weatherlink.com 1.10,2013-07-22 08:52:00,
2013-07-22 03:07:00,70.2,61.0,29.69,West,263,0.0,0.0,73,0.00,,,0.00,weatherlink.com 1.10,2013-07-22 09:07:00,
2013-07-22 03:22:00,69.8,61.0,29.69,West,263,0.0,0.0,74,0.00,,,0.00,weatherlink.com 1.10,2013-07-22 09:22:00,
2013-07-22 03:37:00,69.3,61.0,29.69,West,263,0.0,0.0,76,0.00,,,0.00,weatherlink.com 1.10,2013-07-22 09:37:00,
2013-07-22 03:52:00,69.3,61.0,29.69,West,263,0.0,0.0,76,0.00,,,0.00,weatherlink.com 1.10,2013-07-22 09:52:00,
2013-07-22 04:07:00,68.9,61.0,29.69,West,263,0.0,0.0,76,0.00,,,0.00,weatherlink.com 1.10,2013-07-22 10:07:00,
2013-07-22 04:22:00,69.7,61.0,29.69,East,83,0.0,0.0,75,0.00,,,0.00,weatherlink.com 1.10,2013-07-22 10:22:00,
2013-07-22 04:37:00,69.7,61.0,29.69,SSE,155,0.0,0.0,75,0.00,,,0.00,weatherlink.com 1.10,2013-07-22 10:37:00,
2013-07-22 04:52:00,69.4,61.0,29.68,WSW,256,0.0,0.0,75,0.00,,,0.00,weatherlink.com 1.10,2013-07-22 10:52:00,
2013-07-22 05:07:00,68.6,61.0,29.69,WSW,256,0.0,0.0,77,0.00,,,0.00,weatherlink.com 1.10,2013-07-22 11:07:00,
2013-07-22 05:22:00,68.3,61.0,29.69,WSW,256,0.0,0.0,78,0.00,,,0.00,weatherlink.com 1.10,2013-07-22 11:22:00,
2013-07-22 05:37:00,68.3,62.0,29.69,WSW,256,0.0,0.0,79,0.00,,,0.00,weatherlink.com 1.10,2013-07-22 11:37:00,
2013-07-22 05:52:00,68.8,61.0,29.69,ENE,63,0.0,0.0,77,0.00,,,0.00,weatherlink.com 1.10,2013-07-22 11:52:00,
2013-07-22 06:07:00,69.4,62.0,29.70,NNW,346,0.0,0.0,76,0.00,,,0.00,weatherlink.com 1.10,2013-07-22 12:07:00,
2013-07-22 06:22:00,69.6,62.0,29.70,NW,315,0.0,0.0,76,0.00,,,0.00,weatherlink.com 1.10,2013-07-22 12:22:00,
2013-07-22 06:37:00,69.4,62.0,29.70,NW,315,0.0,0.0,76,0.00,,,0.00,weatherlink.com 1.10,2013-07-22 12:37:00,
2013-07-22 06:52:00,69.6,61.0,29.70,SSW,209,0.0,2.0,75,0.00,,,0.00,weatherlink.com 1.10,2013-07-22 12:52:00,
2013-07-22 07:07:00,69.4,61.0,29.70,WNW,297,0.0,2.0,75,0.00,,,0.00,weatherlink.com 1.10,2013-07-22 13:07:00,
2013-07-22 07:22:00,69.8,62.0,29.71,West,274,0.0,3.0,75,0.00,,,0.00,weatherlink.com 1.10,2013-07-22 13:22:00,
2013-07-22 07:37:00,71.0,62.0,29.71,WNW,297,1.0,4.0,72,0.00,,,0.00,weatherlink.com 1.10,2013-07-22 13:37:00,
2013-07-22 07:53:00,72.0,63.0,29.72,SSE,152,1.0,4.0,72,0.00,,,0.00,weatherlink.com 1.10,2013-07-22 13:53:00,
2013-07-22 08:08:00,72.2,62.0,29.72,WNW,284,2.0,5.0,71,0.00,,,0.00,weatherlink.com 1.10,2013-07-22 14:08:00,
2013-07-22 08:23:00,73.0,63.0,29.72,WSW,253,0.0,3.0,70,0.00,,,0.00,weatherlink.com 1.10,2013-07-22 14:23:00,
2013-07-22 08:38:00,73.9,63.0,29.73,West,259,0.0,2.0,68,0.00,,,0.00,weatherlink.com 1.10,2013-07-22 14:38:00,
2013-07-22 08:53:00,75.5,63.0,29.73,ESE,102,0.0,2.0,66,0.00,,,0.00,weatherlink.com 1.10,2013-07-22 14:53:00,
2013-07-22 09:08:00,75.1,62.0,29.73,NNW,339,1.0,3.0,65,0.00,,,0.00,weatherlink.com 1.10,2013-07-22 15:08:00,
2013-07-22 09:23:00,75.8,63.0,29.73,West,277,3.0,6.0,64,0.00,,,0.00,weatherlink.com 1.10,2013-07-22 15:23:00,
2013-07-22 09:38:00,76.3,63.0,29.73,SSE,167,1.0,5.0,64,0.00,,,0.00,weatherlink.com 1.10,2013-07-22 15:38:00,
2013-07-22 09:53:00,77.1,63.0,29.73,SSE,155,3.0,9.0,62,0.00,,,0.00,weatherlink.com 1.10,2013-07-22 15:53:00,
2013-07-22 10:08:00,77.3,63.0,29.73,WSW,255,6.0,9.0,62,0.00,,,0.00,weatherlink.com 1.10,2013-07-22 16:08:00,
2013-07-22 10:23:00,77.7,63.0,29.74,West,276,1.0,7.0,60,0.00,,,0.00,weatherlink.com 1.10,2013-07-22 16:23:00,
2013-07-22 10:38:00,78.1,62.0,29.74,West,269,1.0,6.0,59,0.00,,,0.00,weatherlink.com 1.10,2013-07-22 16:38:00,
2013-07-22 10:53:00,80.9,64.0,29.73,SSW,205,2.0,6.0,56,0.00,,,0.00,weatherlink.com 1.10,2013-07-22 16:53:00,
2013-07-22 11:08:00,81.9,64.0,29.73,WSW,246,4.0,7.0,54,0.00,,,0.00,weatherlink.com 1.10,2013-07-22 17:08:00,
2013-07-22 11:23:00,81.0,62.0,29.72,WSW,245,0.0,7.0,53,0.00,,,0.00,weatherlink.com 1.10,2013-07-22 17:23:00,
2013-07-22 11:38:00,82.4,62.0,29.72,NW,310,2.0,5.0,51,0.00,,,0.00,weatherlink.com 1.10,2013-07-22 17:38:00,
2013-07-22 11:53:00,82.3,63.0,29.72,WNW,283,2.0,6.0,52,0.00,,,0.00,weatherlink.com 1.10,2013-07-22 17:53:00,
2013-07-22 12:08:00,83.6,63.0,29.71,West,278,3.0,8.0,50,0.00,,,0.00,weatherlink.com 1.10,2013-07-22 18:08:00,
2013-07-22 12:23:00,84.0,62.0,29.71,SSW,211,6.0,9.0,48,0.00,,,0.00,weatherlink.com 1.10,2013-07-22 18:23:00,
2013-07-22 12:38:00,84.2,62.0,29.71,West,263,8.0,10.0,48,0.00,,,0.00,weatherlink.com 1.10,2013-07-22 18:38:00,
2013-07-22 12:53:00,84.6,62.0,29.70,NW,312,1.0,9.0,47,0.00,,,0.00,weatherlink.com 1.10,2013-07-22 18:53:00,
2013-07-22 13:08:00,84.2,61.0,29.69,SW,236,8.0,8.0,46,0.00,,,0.00,weatherlink.com 1.10,2013-07-22 19:08:00,
2013-07-22 13:38:00,86.0,62.0,29.68,WNW,298,1.0,6.0,45,0.00,,,0.00,weatherlink.com 1.10,2013-07-22 19:38:00,
2013-07-22 13:53:00,86.3,62.0,29.67,WSW,250,3.0,7.0,44,0.00,,,0.00,weatherlink.com 1.10,2013-07-22 19:53:00,
2013-07-22 14:23:00,87.9,61.0,29.65,West,276,2.0,7.0,40,0.00,,,0.00,weatherlink.com 1.10,2013-07-22 20:23:00,
2013-07-22 14:38:00,87.6,57.0,29.65,West,276,2.0,8.0,35,0.00,,,0.00,weatherlink.com 1.10,2013-07-22 20:38:00,
2013-07-22 14:53:00,89.2,60.0,29.64,NNW,334,11.0,11.0,38,0.00,,,0.00,weatherlink.com 1.10,2013-07-22 20:53:00,
2013-07-22 15:08:00,89.3,58.0,29.64,SSW,198,2.0,7.0,35,0.00,,,0.00,weatherlink.com 1.10,2013-07-22 21:08:00,
2013-07-22 15:24:00,89.8,58.0,29.64,WSW,249,6.0,9.0,34,0.00,,,0.00,weatherlink.com 1.10,2013-07-22 21:24:00,
2013-07-22 15:39:00,90.1,59.0,29.63,NW,305,2.0,9.0,35,0.00,,,0.00,weatherlink.com 1.10,2013-07-22 21:39:00,
2013-07-22 15:54:00,90.8,57.0,29.62,NNW,348,6.0,9.0,32,0.00,,,0.00,weatherlink.com 1.10,2013-07-22 21:54:00,
2013-07-22 16:09:00,91.0,55.0,29.61,WNW,285,5.0,9.0,29,0.00,,,0.00,weatherlink.com 1.10,2013-07-22 22:09:00,
2013-07-22 16:24:00,90.6,55.0,29.61,West,278,1.0,7.0,30,0.00,,,0.00,weatherlink.com 1.10,2013-07-22 22:24:00,
2013-07-22 16:39:00,89.7,54.0,29.61,WNW,295,2.0,8.0,30,0.00,,,0.00,weatherlink.com 1.10,2013-07-22 22:39:00,
2013-07-22 16:54:00,89.2,55.0,29.61,West,269,1.0,5.0,31,0.00,,,0.00,weatherlink.com 1.10,2013-07-22 22:54:00,
2013-07-22 17:09:00,89.4,55.0,29.61,West,260,1.0,2.0,31,0.00,,,0.00,weatherlink.com 1.10,2013-07-22 23:09:00,
2013-07-22 17:24:00,89.3,57.0,29.61,NW,321,1.0,3.0,33,0.00,,,0.00,weatherlink.com 1.10,2013-07-22 23:24:00,
2013-07-22 17:39:00,89.1,56.0,29.61,NW,304,0.0,6.0,33,0.00,,,0.00,weatherlink.com 1.10,2013-07-22 23:39:00,
2013-07-22 17:54:00,86.8,57.0,29.61,NE,53,9.0,19.0,36,0.00,,,0.00,weatherlink.com 1.10,2013-07-22 23:54:00,
2013-07-22 18:09:00,85.9,59.0,29.61,NW,323,4.0,13.0,40,0.00,,,0.00,weatherlink.com 1.10,2013-07-23 00:09:00,
2013-07-22 18:24:00,84.6,59.0,29.62,SE,124,7.0,8.0,42,0.00,,,0.00,weatherlink.com 1.10,2013-07-23 00:24:00,
2013-07-22 18:39:00,84.8,58.0,29.62,SSW,210,4.0,9.0,40,0.00,,,0.00,weatherlink.com 1.10,2013-07-23 00:39:00,
2013-07-22 18:54:00,85.0,58.0,29.62,SW,221,0.0,5.0,40,0.00,,,0.00,weatherlink.com 1.10,2013-07-23 00:54:00,
2013-07-22 19:09:00,84.7,58.0,29.63,West,264,1.0,6.0,41,0.00,,,0.00,weatherlink.com 1.10,2013-07-23 01:09:00,
2013-07-22 19:24:00,83.9,58.0,29.64,SW,230,2.0,9.0,42,0.00,,,0.00,weatherlink.com 1.10,2013-07-23 01:24:00,
2013-07-22 19:39:00,82.4,63.0,29.65,SSW,195,3.0,9.0,52,0.00,,,0.00,weatherlink.com 1.10,2013-07-23 01:39:00,
2013-07-22 19:54:00,73.0,67.0,29.66,SSW,203,5.0,9.0,82,0.09,,,0.09,weatherlink.com 1.10,2013-07-23 01:54:00,
2013-07-22 20:09:00,70.3,67.0,29.66,SW,232,2.0,12.0,88,0.09,,,0.09,weatherlink.com 1.10,2013-07-23 02:09:00,
2013-07-22 20:24:00,69.7,67.0,29.66,WSW,246,0.0,3.0,90,0.09,,,0.09,weatherlink.com 1.10,2013-07-23 02:24:00,
2013-07-22 20:39:00,70.2,66.0,29.66,SSW,203,0.0,4.0,87,0.09,,,0.09,weatherlink.com 1.10,2013-07-23 02:39:00,
2013-07-22 20:54:00,71.0,66.0,29.67,WSW,240,0.0,2.0,83,0.00,,,0.09,weatherlink.com 1.10,2013-07-23 02:54:00,
2013-07-22 21:09:00,71.0,65.0,29.68,NNW,334,1.0,4.0,80,0.00,,,0.09,weatherlink.com 1.10,2013-07-23 03:09:00,
2013-07-22 21:24:00,71.0,65.0,29.69,ESE,114,2.0,2.0,80,0.00,,,0.09,weatherlink.com 1.10,2013-07-23 03:24:00,
2013-07-22 21:39:00,71.9,64.0,29.71,WSW,253,1.0,7.0,76,0.00,,,0.09,weatherlink.com 1.10,2013-07-23 03:39:00,
2013-07-22 21:54:00,71.7,63.0,29.72,SW,215,3.0,11.0,75,0.00,,,0.09,weatherlink.com 1.10,2013-07-23 03:54:00,
2013-07-22 22:09:00,71.5,64.0,29.72,SW,232,0.0,4.0,76,0.00,,,0.09,weatherlink.com 1.10,2013-07-23 04:09:00,
2013-07-22 22:24:00,71.5,63.0,29.73,WSW,256,3.0,5.0,74,0.00,,,0.09,weatherlink.com 1.10,2013-07-23 04:24:00,
2013-07-22 22:39:00,71.4,63.0,29.74,West,271,0.0,5.0,74,0.00,,,0.09,weatherlink.com 1.10,2013-07-23 04:39:00,
2013-07-22 22:54:00,71.0,63.0,29.74,NNW,348,0.0,5.0,75,0.00,,,0.09,weatherlink.com 1.10,2013-07-23 04:54:00,
2013-07-22 23:09:00,70.6,62.0,29.74,WNW,297,1.0,6.0,74,0.00,,,0.09,weatherlink.com 1.10,2013-07-23 05:09:00,
2013-07-22 23:24:00,70.1,62.0,29.75,NW,323,0.0,3.0,76,0.00,,,0.09,weatherlink.com 1.10,2013-07-23 05:24:00,
2013-07-22 23:39:00,70.1,61.0,29.75,NNW,338,0.0,3.0,74,0.00,,,0.09,weatherlink.com 1.10,2013-07-23 05:39:00,
2013-07-22 23:54:00,70.1,62.0,29.75,NE,44,0.0,3.0,75,0.00,,,0.09,weatherlink.com 1.10,2013-07-23 05:54:00,